User: anonymous   Login
Location: Unspecified
(0.0000°N, 0.0000°E)
Time: 18:52:52
(UTC+00:00)
Language:

UME 2 Rocket - Orbit

View from above orbital plane
View from above orbital plane
View from above satellite
View from above satellite

Ground track
Ground track

The orbit data is extracted from the following two-line orbital elements,

1 10674U 78018A   17084.89482228 -.00000068 +00000-0 -28293-4 0  9999
2 10674 069.3622 206.5016 0163413 168.3424 308.4903 13.43601612917948
Epoch (UTC): 25 March 2017 21:28:32
Eccentricity: 0.0163413
inclination: 69.3622°
perigee height: 974 km
apogee height: 1218 km
right ascension of ascending node: 206.5016°
argument of perigee: 168.3424°
revolutions per day: 13.43601612
mean anomaly at epoch: 308.4903°
orbit number at epoch: 91794

The dashed part of the orbit path shows where the satellite is in the earth's shadow,  

DLR